Weather History for Melilla, Spain

Change the Weather History Date:

Thursday, March 28, 2013

  Actual Average Record
Temperature  
Mean Temperature 62 °F -  
Max Temperature 69 °F 69 °F 73 °F (2006)
Min Temperature 55 °F 56 °F 50 °F (2007)
Degree Days  
Heating Degree Days 3    
Growing Degree Days 12 (Base 50)    
Moisture  
Dew Point 54 °F    
Average Humidity 70    
Maximum Humidity 88    
Minimum Humidity 51    
Precipitation  
Precipitation 0.00 in 0.06 in - ()
Sea Level Pressure  
Sea Level Pressure 29.88 in    
Wind  
Wind Speed 8 mph ()    
Max Wind Speed 22 mph    
Max Gust Speed 37 mph    
Visibility 8.2 miles    
Events      
Averages and records for this station are not official NWS values.
T = Trace of Precipitation, MM = Missing Value Source: Averaged Metar Reports

Daily Weather History Graph

Daily Weather History Graph

Search for Another Location

Airport:

Trip Planner

Search our weather history database for the weather conditions in past years. The results will help you decide how hot, cold, wet, or windy it might be!

Date:

Astronomy

Mar. 28, 2013 Rise Set
Actual Time 7:04 AM CET 7:30 PM CET
Civil Twilight 6:38 AM CET 7:55 PM CET
Nautical Twilight 6:08 AM CET 8:25 PM CET
Astronomical Twilight 5:38 AM CET 8:56 PM CET
Moon 9:00 PM CET (3/28) 7:26 AM CET (3/28)
Length of Visible Light 13h 16m
Length of Day
12h 25m
Full, 99% of the Moon is Illuminated
Mar 28
Full
Apr 3
Last Quarter
Apr 10
New
Apr 18
First Quarter
Apr 25
Full

Hourly Weather History & Observations

Time (CET) Temp. Dew Point Humidity Pressure Visibility Wind Dir Wind Speed Gust Speed Precip Events Conditions
6:00 AM 57.2 °F 51.8 °F 82% 29.77 in - Calm Calm - N/A   Clear
6:30 AM 55.4 °F 51.8 °F 88% 29.77 in - NW 3.5 mph - N/A   Clear
7:00 AM 57 °F 51 °F 76% 29.77 in 25 mi NW 3.5 mph - -   Mostly Cloudy
7:00 AM 55.4 °F 51.8 °F 88% 29.77 in - NW 3.5 mph - N/A   Clear
7:30 AM 57.2 °F 53.6 °F 88% 29.77 in - Calm Calm - N/A   Clear
8:00 AM 59.0 °F 55.4 °F 88% 29.77 in - NW 2.3 mph - N/A   Clear
8:30 AM 59.0 °F 53.6 °F 82% 29.77 in - North 3.5 mph - N/A   Clear
9:00 AM 60.8 °F 53.6 °F 77% 29.80 in - Variable 2.3 mph - N/A   Clear
9:30 AM 64.4 °F 55.4 °F 73% 29.80 in - NNE 3.5 mph - N/A   Clear
10:00 AM 64.4 °F 55.4 °F 73% 29.80 in - Variable 2.3 mph - N/A   Clear
10:30 AM 68.0 °F 51.8 °F 56% 29.83 in - West 12.7 mph - N/A   Clear
11:00 AM 69.8 °F 53.6 °F 56% 29.86 in - WSW 9.2 mph - N/A   Clear
11:30 AM 68.0 °F 55.4 °F 64% 29.89 in - West 12.7 mph - N/A   Clear
12:00 PM 66.2 °F 55.4 °F 68% 29.89 in - WNW 13.8 mph - N/A   Clear
12:30 PM 68.0 °F 53.6 °F 60% 29.92 in - West 11.5 mph - N/A   Clear
1:00 PM 68 °F 54 °F 51% 29.92 in 19 mi West 13.8 mph - -   Scattered Clouds
1:00 PM 68.0 °F 53.6 °F 60% 29.92 in - West 15.0 mph - N/A   Clear
1:30 PM 68.0 °F 53.6 °F 60% 29.92 in - West 16.1 mph - N/A   Clear
2:00 PM 68.0 °F 53.6 °F 60% 29.95 in - West 16.1 mph - N/A   Clear
2:30 PM 66.2 °F 53.6 °F 64% 29.95 in 6.2 mi West 13.8 mph - N/A   Partly Cloudy
3:00 PM 66.2 °F 55.4 °F 68% 29.95 in 6.2 mi West 18.4 mph - N/A   Mostly Cloudy
3:30 PM 66.2 °F 55.4 °F 68% 29.92 in 6.2 mi West 18.4 mph 32.2 mph N/A   Mostly Cloudy
4:00 PM 66.2 °F 55.4 °F 68% 29.92 in 6.2 mi West 17.3 mph 32.2 mph N/A   Scattered Clouds
4:30 PM 66.2 °F 53.6 °F 64% 29.92 in 6.2 mi WSW 19.6 mph 32.2 mph N/A   Scattered Clouds
5:00 PM 64.4 °F 53.6 °F 68% 29.95 in 6.2 mi West 17.3 mph 31.1 mph N/A   Partly Cloudy
5:30 PM 64.4 °F 53.6 °F 68% 29.95 in 6.2 mi West 17.3 mph 29.9 mph N/A   Partly Cloudy
6:00 PM 64.4 °F 53.6 °F 68% 29.95 in 6.2 mi West 20.7 mph 35.7 mph N/A   Partly Cloudy
6:30 PM 62.6 °F 53.6 °F 72% 29.95 in 6.2 mi West 21.9 mph 36.8 mph N/A   Partly Cloudy
7:00 PM 62 °F 53 °F 65% 29.96 in 19 mi West 19.6 mph - -   Scattered Clouds
7:00 PM 62.6 °F 53.6 °F 72% 29.95 in 6.2 mi West 20.7 mph 35.7 mph N/A   Partly Cloudy
7:30 PM 62.6 °F 53.6 °F 72% 29.98 in 6.2 mi West 19.6 mph 35.7 mph N/A   Partly Cloudy